User: anonymous   Login
Location: Unspecified
(0.0000°N, 0.0000°E)
Time: 11:04:07
(UTC+00:00)
Language:

ATEX - Orbit

View from above orbital plane
View from above orbital plane
View from above satellite
View from above satellite

Ground track
Ground track

The orbit data is extracted from the following two-line orbital elements,

1 25489U 98055A   17230.07200028 0.00000700  00000-0  18641-3 0    00
2 25489  84.9925  97.3637 0010000 195.0761 164.9237 14.48584766    07
Epoch (UTC): 18 August 2017 01:43:40
Eccentricity: 0.0010000
inclination: 84.9925°
perigee height: 723 km
apogee height: 737 km
right ascension of ascending node: 97.3637°
argument of perigee: 195.0761°
revolutions per day: 14.48584766
mean anomaly at epoch: 164.9237°
orbit number at epoch: 0

The dashed part of the orbit path shows where the satellite is in the earth's shadow,  

DLR